• En España
  • Lista de países
  • Para 7 días
  • Temperatura del agua
  • Mapa Satelital
  • El tiempo en el mapa
  • Informadores
  • user-avatar
    Iniciar sesión

    Tiempo cada hora Algiers

    Hoy, 21 Agosto, Lunes

    Tiempo Temperatura Precipitaciones Viento Presión Humedad
    00:00 +27°C° 0 mm 5 mps 751 mmHg 74%
    01:00 +26°C° 0 mm 5 mps 751 mmHg 76%
    02:00 +26°C° 0 mm 5 mps 751 mmHg 78%
    03:00 +25°C° 0 mm 5 mps 750 mmHg 80%
    04:00 +25°C° 0 mm 5 mps 751 mmHg 80%
    05:00 +25°C° 0 mm 5 mps 751 mmHg 79%
    06:00 +26°C° 0 mm 5 mps 751 mmHg 77%
    07:00 +27°C° 0 mm 5 mps 751 mmHg 68%
    08:00 +29°C° 0 mm 5 mps 751 mmHg 58%
    09:00 +30°C° 0 mm 5 mps 751 mmHg 48%
    10:00 +32°C° 0 mm 5 mps 751 mmHg 43%
    11:00 +34°C° 0 mm 6 mps 751 mmHg 39%
    12:00 +35°C° 0 mm 6 mps 751 mmHg 34%
    13:00 +35°C° 0 mm 6 mps 750 mmHg 33%
    14:00 +35°C° 0 mm 6 mps 750 mmHg 33%
    15:00 +35°C° 0 mm 6 mps 750 mmHg 32%
    16:00 +34°C° 0 mm 6 mps 750 mmHg 36%
    17:00 +32°C° 0 mm 6 mps 750 mmHg 39%
    18:00 +30°C° 0 mm 5 mps 750 mmHg 43%
    19:00 +29°C° 0 mm 5 mps 750 mmHg 48%
    20:00 +28°C° 0 mm 5 mps 750 mmHg 54%
    21:00 +27°C° 0 mm 4 mps 750 mmHg 59%
    22:00 +26°C° 0 mm 4 mps 750 mmHg 61%
    23:00 +26°C° 0 mm 4 mps 750 mmHg 63%

    Mañana, 22 Agosto, Martes

    Tiempo Temperatura Precipitaciones Viento Presión Humedad
    00:00 +25°C° 0 mm 3 mps 750 mmHg 64%
    01:00 +25°C° 0 mm 3 mps 750 mmHg 64%
    02:00 +25°C° 0 mm 3 mps 750 mmHg 64%
    03:00 +24°C° 0 mm 3 mps 750 mmHg 65%
    04:00 +24°C° 0 mm 3 mps 750 mmHg 63%
    05:00 +25°C° 0 mm 3 mps 750 mmHg 61%
    06:00 +25°C° 0 mm 3 mps 750 mmHg 59%
    07:00 +27°C° 0 mm 3 mps 750 mmHg 51%
    08:00 +28°C° 0 mm 3 mps 750 mmHg 43%
    09:00 +30°C° 0 mm 3 mps 751 mmHg 35%
    10:00 +33°C° 0 mm 3 mps 750 mmHg 33%
    11:00 +34°C° 0 mm 3 mps 750 mmHg 30%
    12:00 +35°C° 0 mm 4 mps 750 mmHg 28%
    13:00 +35°C° 0 mm 4 mps 749 mmHg 29%
    14:00 +35°C° 0 mm 4 mps 749 mmHg 31%
    15:00 +35°C° 0 mm 4 mps 749 mmHg 32%
    16:00 +34°C° 0 mm 4 mps 749 mmHg 36%
    17:00 +33°C° 0 mm 4 mps 749 mmHg 41%
    18:00 +30°C° 0 mm 4 mps 749 mmHg 45%
    19:00 +29°C° 0 mm 4 mps 749 mmHg 50%
    20:00 +28°C° 0 mm 3 mps 749 mmHg 54%
    21:00 +27°C° 0 mm 3 mps 749 mmHg 59%
    22:00 +27°C° 0 mm 3 mps 749 mmHg 58%
    23:00 +26°C° 0 mm 3 mps 749 mmHg 58%

    Pasado mañana, 23 Agosto, Miércoles

    Tiempo Temperatura Precipitaciones Viento Presión Humedad
    00:00 +26°C° 0 mm 3 mps 749 mmHg 58%
    01:00 +26°C° 0 mm 3 mps 749 mmHg 56%
    02:00 +26°C° 0 mm 3 mps 748 mmHg 54%
    03:00 +26°C° 0 mm 3 mps 748 mmHg 52%
    04:00 +26°C° 0 mm 3 mps 748 mmHg 49%
    05:00 +26°C° 0 mm 3 mps 749 mmHg 46%
    06:00 +26°C° 0 mm 3 mps 749 mmHg 43%
    07:00 +29°C° 0 mm 3 mps 749 mmHg 36%
    08:00 +31°C° 0 mm 3 mps 749 mmHg 30%
    09:00 +35°C° 0 mm 3 mps 750 mmHg 24%
    10:00 +36°C° 0 mm 4 mps 750 mmHg 22%
    11:00 +37°C° 0 mm 4 mps 749 mmHg 20%
    12:00 +39°C° 0 mm 5 mps 749 mmHg 18%
    13:00 +39°C° 0 mm 5 mps 749 mmHg 19%
    14:00 +39°C° 0 mm 5 mps 749 mmHg 20%
    15:00 +39°C° 0 mm 6 mps 748 mmHg 21%
    16:00 +38°C° 0 mm 6 mps 748 mmHg 25%
    17:00 +36°C° 0 mm 5 mps 748 mmHg 29%
    18:00 +34°C° 0 mm 5 mps 748 mmHg 33%
    19:00 +33°C° 0 mm 5 mps 749 mmHg 37%
    20:00 +32°C° 0 mm 4 mps 749 mmHg 41%
    21:00 +30°C° 0 mm 4 mps 749 mmHg 44%
    22:00 +29°C° 0 mm 4 mps 749 mmHg 42%
    23:00 +29°C° 0 mm 4 mps 749 mmHg 40%

    24 Agosto, Jueves

    Tiempo Temperatura Precipitaciones Viento Presión Humedad
    00:00 +29°C° 0 mm 4 mps 748 mmHg 38%
    01:00 +29°C° 0 mm 4 mps 748 mmHg 36%
    02:00 +29°C° 0 mm 4 mps 748 mmHg 35%
    03:00 +29°C° 0 mm 4 mps 748 mmHg 33%
    04:00 +29°C° 0 mm 4 mps 748 mmHg 33%
    05:00 +30°C° 0 mm 4 mps 748 mmHg 33%
    06:00 +30°C° 0 mm 4 mps 748 mmHg 33%
    07:00 +33°C° 0 mm 4 mps 748 mmHg 30%
    08:00 +36°C° 0 mm 4 mps 749 mmHg 26%
    09:00 +38°C° 0 mm 4 mps 749 mmHg 22%
    10:00 +40°C° 0 mm 4 mps 749 mmHg 21%
    11:00 +41°C° 0 mm 4 mps 748 mmHg 19%
    12:00 +43°C° 0 mm 5 mps 748 mmHg 18%
    13:00 +42°C° 0 mm 5 mps 748 mmHg 19%
    14:00 +42°C° 0 mm 5 mps 747 mmHg 20%
    15:00 +42°C° 0 mm 6 mps 747 mmHg 21%
    16:00 +41°C° 0 mm 5 mps 747 mmHg 24%
    17:00 +39°C° 0 mm 5 mps 747 mmHg 27%
    18:00 +37°C° 0 mm 4 mps 747 mmHg 30%
    19:00 +36°C° 0 mm 4 mps 747 mmHg 32%
    20:00 +35°C° 0 mm 3 mps 747 mmHg 34%
    21:00 +34°C° 0 mm 3 mps 748 mmHg 36%
    22:00 +34°C° 0 mm 3 mps 747 mmHg 35%
    23:00 +35°C° 0 mm 3 mps 747 mmHg 33%

    25 Agosto, Viernes

    Tiempo Temperatura Precipitaciones Viento Presión Humedad
    00:00 +35°C° 0 mm 2 mps 747 mmHg 31%
    01:00 +34°C° 0 mm 2 mps 747 mmHg 31%
    02:00 +34°C° 0 mm 2 mps 747 mmHg 31%
    03:00 +34°C° 0 mm 2 mps 746 mmHg 32%
    04:00 +32°C° 0 mm 2 mps 747 mmHg 33%
    05:00 +32°C° 0 mm 2 mps 747 mmHg 34%
    06:00 +32°C° 0 mm 2 mps 747 mmHg 36%
    07:00 +34°C° 0 mm 2 mps 747 mmHg 32%
    08:00 +36°C° 0 mm 3 mps 747 mmHg 29%
    09:00 +38°C° 0 mm 3 mps 747 mmHg 26%
    10:00 +39°C° 0 mm 3 mps 747 mmHg 25%
    11:00 +40°C° 0 mm 3 mps 747 mmHg 23%
    12:00 +42°C° 0 mm 3 mps 747 mmHg 22%
    13:00 +42°C° 0 mm 3 mps 746 mmHg 23%
    14:00 +40°C° 0 mm 3 mps 746 mmHg 25%
    15:00 +40°C° 0 mm 3 mps 746 mmHg 27%
    16:00 +39°C° 0 mm 3 mps 746 mmHg 30%
    17:00 +38°C° 0 mm 3 mps 745 mmHg 34%
    18:00 +36°C° 0 mm 2 mps 745 mmHg 37%
    19:00 +36°C° 0 mm 2 mps 746 mmHg 38%
    20:00 +35°C° 0 mm 2 mps 746 mmHg 39%
    21:00 +35°C° 0 mm 3 mps 746 mmHg 40%
    22:00 +35°C° 0 mm 3 mps 746 mmHg 38%
    23:00 +35°C° 0 mm 3 mps 746 mmHg 37%

    26 Agosto, Sábado

    Tiempo Temperatura Precipitaciones Viento Presión Humedad
    00:00 +35°C° 0 mm 3 mps 746 mmHg 35%
    01:00 +34°C° 0 mm 3 mps 746 mmHg 35%
    02:00 +34°C° 0 mm 3 mps 746 mmHg 36%
    03:00 +33°C° 0 mm 3 mps 745 mmHg 36%
    04:00 +33°C° 0 mm 3 mps 746 mmHg 37%
    05:00 +32°C° 0 mm 2 mps 746 mmHg 39%
    06:00 +32°C° 0 mm 2 mps 746 mmHg 40%
    07:00 +35°C° 0 mm 2 mps 746 mmHg 36%
    08:00 +36°C° 0 mm 2 mps 746 mmHg 32%
    09:00 +38°C° 0 mm 2 mps 746 mmHg 27%
    10:00 +39°C° 0 mm 2 mps 746 mmHg 27%
    11:00 +40°C° 0 mm 3 mps 746 mmHg 26%
    12:00 +42°C° 0 mm 4 mps 746 mmHg 25%
    13:00 +40°C° 0 mm 3 mps 746 mmHg 27%
    14:00 +40°C° 0 mm 3 mps 746 mmHg 28%
    15:00 +40°C° 0 mm 3 mps 745 mmHg 30%
    16:00 +39°C° 0 mm 3 mps 745 mmHg 33%
    17:00 +37°C° 0 mm 2 mps 746 mmHg 37%
    18:00 +36°C° 0 mm 2 mps 746 mmHg 41%
    19:00 +36°C° 0 mm 2 mps 746 mmHg 41%
    20:00 +35°C° 0 mm 2 mps 746 mmHg 41%
    21:00 +35°C° 0 mm 2 mps 747 mmHg 41%
    22:00 +35°C° 0,2 mm 2 mps 747 mmHg 39%
    23:00 +35°C° 0,2 mm 3 mps 746 mmHg 38%
    Mostrar más